Regional Weather Roundup
Issued by NWS State College, PA

Home | Current Version | Previous Version | Graphics & Text | Print | Product List | Glossary Off
Versions: 1 2 3 4 5 6 7 8 9 10 11 12 13 14 15 16 17 18 19 20 21 22 23 24 25 26 27 28 29 30 31 32 33 34 35 36 37 38 39 40 41 42 43 44 45 46 47 48 49 50

000
ASUS41 KCTP 261503
RWRCTP

REGIONAL WEATHER ROUNDUP
NATIONAL WEATHER SERVICE STATE COLLEGE PA
1100 AM EDT THU MAY 26 2016

Note: "fair" indicates few or no clouds below 12,000 feet with no
significant weather and/or obstructions to visibility.

* = STATION THAT DOES NOT REPORT PRECIPITATION /E.G. RAIN...SNOW...ETC/
    THUNDER OR FOG.

PAZ002>004-007>009-013>016-020>023-029>032-261600-
WESTERN PENNSYLVANIA

CITY           SKY/WX    TMP DP  RH WIND       PRES   REMARKS
ERIE           CLOUDY    78  63  59 S12       30.02F
MEADVILLE      CLOUDY    73  63  70 SW12      30.07S
FRANKLIN*      CLOUDY    75  63  64 S14       30.10S
NEW CASTLE     PTSUNNY   77  64  64 VRB5      30.08F
BEAVER COUNTY  MOSUNNY   73  63  68 SW12      30.09F
BUTLER*        MOSUNNY   73  61  64 SW8G20    30.13S
PITTSBURGH INT CLOUDY    74  61  63 S12       30.09F
PITTSBURGH     CLOUDY    71  60  68 S12       30.11R
INDIANA*       SUNNY     75  63  64 W12       30.15S
LATROBE        PTSUNNY   72  63  73 SW9G18    30.13F
WASHINGTON CO* MOSUNNY   72  63  73 SW7       30.12S
$$

PAZ004>006-010>012-017>019-024>028-033>037-041-042-045-046-049>053-261600-
CENTRAL PENNSYLVANIA

CITY           SKY/WX    TMP DP  RH WIND       PRES   REMARKS
BRADFORD       PTSUNNY   72  54  53 SW8       30.12F
DUBOIS         PTSUNNY   75  57  53 SW9       30.11F
CLEARFIELD     MOSUNNY   75  58  55 CALM      30.12F
JOHNSTOWN      PTSUNNY   73  54  51 VRB6      30.15F
ALTOONA        MOSUNNY   80  54  40 S10       30.13F
STATE COLLEGE  PTSUNNY   75  57  53 SW7       30.12S
WILLIAMSPORT   MOSUNNY   71  56  58 SE5       30.09F
SELINSGROVE    MOSUNNY   75  56  51 CALM      30.10F
FT INDIANTOWN  MOSUNNY   75  59  57 VRB2      30.10S
CAPITAL CITY   MOSUNNY   79  57  46 CALM      30.09F
HARRISBURG     MOSUNNY   77  58  51 CALM      30.09F
YORK           SUNNY     81  60  48 CALM      30.10F
$$

PAZ038>040-043-044-047-048-054-055-060>062-067>071-261600-
EASTERN PENNSYLVANIA

CITY           SKY/WX    TMP DP  RH WIND       PRES   REMARKS
SCRANTON       CLOUDY    76  58  53 VRB3      30.10F
MOUNT POCONO   CLOUDY    71  46  40 VRB3      30.16F
ALLENTOWN      CLOUDY    83  57  41 CALM      30.10F
QUAKERTOWN*    SUNNY     82  57  42 SW5       30.11F
READING        SUNNY     83  58  42 CALM      30.08F
LANCASTER      SUNNY     80  59  48 SE6       30.09F
COATESVILLE    SUNNY     81  57  44 VRB3      30.13F
POTTSTOWN      SUNNY     81  58  45 VRB6      30.11F
BLUE BELL      SUNNY     81  61  50 S6        30.10F
DOYLESTOWN     SUNNY     82  53  36 CALM      30.10F
WILLOW GROVE   NOT AVBL
NORTH PHILA    MOSUNNY   83  57  41 VRB5      30.12F
PHILADELPHIA   PTSUNNY   80  59  48 VRB5      30.12S
$$




USA.gov is the U.S. government's official web portal to all federal, state and local government web resources and services.